Radiation Dose at Monitoring Post of Fukushima Daini Nuclear Power Station
Date,Time,MP-1(microSv/h),MP-2(microSv/h),MP-3(microSv/h),MP-4(microSv/h),MP-5(microSv/h),MP-6(microSv/h),MP-7(microSv/h),Wind Direction,Wind Velocity(m/s),Rain
2022/11/05,00:00,0.157,0.142,0.227,0.217,0.218,0.125,0.079,west-northwest,6.0,No
2022/11/05,00:10,0.157,0.142,0.226,0.217,0.217,0.125,0.080,west-northwest,5.3,No
2022/11/05,00:20,0.157,0.142,0.227,0.217,0.216,0.124,0.080,west-northwest,5.3,No
2022/11/05,00:30,0.157,0.142,0.225,0.217,0.216,0.124,0.080,west-northwest,4.9,No
2022/11/05,00:40,0.157,0.142,0.226,0.217,0.217,0.124,0.079,northwest,5.2,No
2022/11/05,00:50,0.156,0.142,0.227,0.217,0.216,0.125,0.079,northwest,4.1,No
2022/11/05,01:00,0.157,0.141,0.226,0.217,0.216,0.124,0.079,northwest,5.1,No
2022/11/05,01:10,0.158,0.142,0.226,0.216,0.216,0.124,0.080,northwest,5.1,No
2022/11/05,01:20,0.156,0.143,0.226,0.217,0.216,0.125,0.080,northwest,4.3,No
2022/11/05,01:30,0.157,0.142,0.226,0.217,0.216,0.124,0.079,northwest,4.3,No
2022/11/05,01:40,0.157,0.142,0.226,0.217,0.216,0.124,0.079,north-northwest,5.4,No
2022/11/05,01:50,0.158,0.143,0.226,0.216,0.216,0.124,0.079,northwest,5.3,No
2022/11/05,02:00,0.157,0.142,0.226,0.217,0.216,0.125,0.079,northwest,4.2,No
2022/11/05,02:10,0.157,0.143,0.226,0.218,0.216,0.124,0.080,northwest,3.0,No
2022/11/05,02:20,0.157,0.142,0.227,0.216,0.217,0.125,0.079,north-northwest,4.2,No
2022/11/05,02:30,0.157,0.142,0.227,0.217,0.217,0.124,0.079,northwest,3.8,No
2022/11/05,02:40,0.157,0.142,0.226,0.217,0.216,0.126,0.079,northwest,3.0,No
2022/11/05,02:50,0.157,0.142,0.226,0.217,0.216,0.124,0.079,northwest,3.1,No
2022/11/05,03:00,0.157,0.143,0.227,0.216,0.216,0.124,0.079,north-northwest,3.0,No
2022/11/05,03:10,0.158,0.142,0.225,0.217,0.217,0.123,0.080,north,1.1,No
2022/11/05,03:20,0.156,0.143,0.227,0.217,0.216,0.124,0.080,north,0.8,No
2022/11/05,03:30,0.157,0.143,0.226,0.217,0.217,0.124,0.079,northwest,2.1,No
2022/11/05,03:40,0.157,0.142,0.226,0.216,0.217,0.124,0.080,northwest,2.4,No
2022/11/05,03:50,0.157,0.142,0.226,0.216,0.216,0.124,0.079,northwest,1.8,No
2022/11/05,04:00,0.158,0.143,0.226,0.217,0.215,0.124,0.079,southwest,1.4,No
2022/11/05,04:10,0.156,0.142,0.226,0.217,0.215,0.123,0.079,south,0.8,No
2022/11/05,04:20,0.158,0.143,0.227,0.217,0.216,0.124,0.080,south-southwest,1.2,No
2022/11/05,04:30,0.157,0.143,0.226,0.217,0.216,0.124,0.080,west-southwest,1.5,No
2022/11/05,04:40,0.157,0.142,0.226,0.218,0.215,0.124,0.080,west,1.2,No
2022/11/05,04:50,0.158,0.142,0.226,0.217,0.218,0.124,0.080,west,1.0,No
2022/11/05,05:00,0.157,0.142,0.226,0.216,0.216,0.124,0.079,west-northwest,1.1,No
2022/11/05,05:10,0.158,0.142,0.226,0.217,0.216,0.124,0.080,west-northwest,1.1,No
2022/11/05,05:20,0.157,0.142,0.226,0.217,0.216,0.124,0.080,-,CALM,No
2022/11/05,05:30,0.157,0.143,0.226,0.217,0.216,0.124,0.080,-,CALM,No
2022/11/05,05:40,0.157,0.142,0.226,0.217,0.216,0.124,0.079,north-northwest,0.6,No
2022/11/05,05:50,0.158,0.141,0.226,0.217,0.218,0.125,0.079,-,CALM,No
2022/11/05,06:00,0.157,0.141,0.226,0.216,0.216,0.125,0.080,-,CALM,No
2022/11/05,06:10,0.157,0.142,0.226,0.216,0.216,0.125,0.079,-,CALM,No
2022/11/05,06:20,0.156,0.142,0.226,0.216,0.217,0.123,0.079,south,0.8,No
2022/11/05,06:30,0.156,0.141,0.226,0.217,0.216,0.124,0.079,southwest,1.4,No
2022/11/05,06:40,0.157,0.142,0.226,0.216,0.215,0.124,0.079,west-southwest,2.2,No
2022/11/05,06:50,0.157,0.141,0.227,0.216,0.216,0.124,0.079,west,2.0,No
2022/11/05,07:00,0.156,0.142,0.227,0.217,0.216,0.124,0.080,west,1.8,No
2022/11/05,07:10,0.157,0.142,0.227,0.217,0.216,0.124,0.080,west-southwest,1.1,No
2022/11/05,07:20,0.157,0.141,0.226,0.216,0.217,0.124,0.079,west-southwest,0.7,No
2022/11/05,07:30,0.157,0.141,0.226,0.217,0.216,0.123,0.080,west-southwest,1.6,No
2022/11/05,07:40,0.156,0.141,0.225,0.215,0.218,0.123,0.080,west,2.5,No
2022/11/05,07:50,0.157,0.142,0.226,0.216,0.217,0.124,0.079,west,2.7,No
2022/11/05,08:00,0.156,0.141,0.226,0.217,0.216,0.122,0.080,west-northwest,1.9,No
2022/11/05,08:10,0.157,0.142,0.225,0.215,0.218,0.123,0.080,west,1.4,No
2022/11/05,08:20,0.157,0.142,0.226,0.215,0.216,0.123,0.079,west,2.4,No
2022/11/05,08:30,0.157,0.143,0.225,0.215,0.217,0.124,0.079,west-southwest,2.0,No
2022/11/05,08:40,0.157,0.142,0.225,0.214,0.216,0.123,0.078,west-southwest,0.6,No
2022/11/05,08:50,0.156,0.141,0.226,0.217,0.216,0.124,0.079,west-southwest,0.9,No
2022/11/05,09:00,0.157,0.142,0.226,0.215,0.217,0.124,0.080,south-southwest,0.9,No
2022/11/05,09:10,0.156,0.143,0.226,0.216,0.216,0.124,0.079,south,1.9,No
2022/11/05,09:20,0.157,0.142,0.225,0.215,0.217,0.124,0.079,south-southwest,2.1,No
2022/11/05,09:30,0.156,0.142,0.225,0.217,0.215,0.124,0.079,south,1.8,No
2022/11/05,09:40,0.156,0.141,0.225,0.216,0.216,0.124,0.079,south-southeast,1.6,No
2022/11/05,09:50,0.155,0.142,0.227,0.216,0.216,0.124,0.079,south-southeast,1.8,No
2022/11/05,10:00,0.156,0.141,0.225,0.216,0.215,0.124,0.079,south,2.0,No
2022/11/05,10:10,0.155,0.142,0.227,0.216,0.216,0.123,0.079,south-southeast,2.7,No
2022/11/05,10:20,0.157,0.141,0.225,0.215,0.214,0.124,0.079,south-southeast,2.7,No
2022/11/05,10:30,0.156,0.142,0.226,0.217,0.216,0.125,0.079,southeast,3.7,No
2022/11/05,10:40,0.157,0.141,0.225,0.216,0.215,0.124,0.079,southeast,3.5,No
2022/11/05,10:50,0.156,0.142,0.226,0.217,0.217,0.125,0.080,southeast,4.6,No
2022/11/05,11:00,0.156,0.142,0.224,0.216,0.216,0.123,0.079,southeast,4.1,No
2022/11/05,11:10,0.155,0.142,0.225,0.216,0.214,0.124,0.080,south-southeast,4.3,No
2022/11/05,11:20,0.157,0.141,0.225,0.217,0.217,0.123,0.078,south-southeast,4.7,No
2022/11/05,11:30,0.154,0.141,0.224,0.214,0.216,0.124,0.079,southeast,3.8,No
2022/11/05,11:40,0.154,0.142,0.227,0.217,0.214,0.124,0.079,southeast,3.9,No
2022/11/05,11:50,0.157,0.140,0.225,0.217,0.218,0.125,0.079,southeast,3.6,No
2022/11/05,12:00,0.156,0.141,0.226,0.214,0.215,0.124,0.080,southeast,3.0,No
2022/11/05,12:10,0.155,0.142,0.225,0.217,0.214,0.124,0.080,east-southeast,2.3,No
2022/11/05,12:20,0.153,0.141,0.224,0.216,0.217,0.125,0.079,east-southeast,2.5,No
2022/11/05,12:30,0.156,0.141,0.226,0.216,0.216,0.124,0.079,southeast,2.2,No
2022/11/05,12:40,0.157,0.142,0.225,0.217,0.215,0.124,0.079,south-southeast,2.7,No
2022/11/05,12:50,0.155,0.141,0.225,0.215,0.216,0.125,0.078,southeast,2.6,No
2022/11/05,13:00,0.155,0.142,0.226,0.217,0.217,0.123,0.079,south-southeast,2.1,No
2022/11/05,13:10,0.157,0.142,0.226,0.216,0.216,0.123,0.079,southeast,1.9,No
2022/11/05,13:20,0.157,0.142,0.226,0.219,0.218,0.124,0.079,south-southeast,1.4,No
2022/11/05,13:30,0.159,0.142,0.228,0.216,0.218,0.123,0.079,south-southeast,1.3,No
2022/11/05,13:40,0.157,0.142,0.226,0.218,0.217,0.124,0.079,-,CALM,No
2022/11/05,13:50,0.155,0.142,0.227,0.217,0.214,0.124,0.079,west-northwest,5.6,No
2022/11/05,14:00,0.156,0.143,0.226,0.215,0.217,0.124,0.079,west-northwest,6.2,No
2022/11/05,14:10,0.157,0.141,0.227,0.217,0.217,0.125,0.079,northwest,5.9,No
2022/11/05,14:20,0.158,0.141,0.226,0.216,0.216,0.124,0.079,northwest,5.3,No
2022/11/05,14:30,0.156,0.141,0.226,0.217,0.217,0.122,0.079,west-northwest,5.0,No
2022/11/05,14:40,0.158,0.140,0.226,0.217,0.215,0.124,0.079,west,6.9,No
2022/11/05,14:50,0.157,0.142,0.226,0.217,0.217,0.124,0.080,west-northwest,5.3,No
2022/11/05,15:00,0.158,0.141,0.226,0.216,0.216,0.123,0.079,west,5.7,No
2022/11/05,15:10,0.156,0.142,0.226,0.217,0.217,0.124,0.079,west-northwest,7.0,No
2022/11/05,15:20,0.158,0.141,0.225,0.216,0.215,0.123,0.079,west-northwest,5.3,No
2022/11/05,15:30,0.157,0.142,0.226,0.218,0.218,0.123,0.079,northwest,4.5,No
2022/11/05,15:40,0.157,0.141,0.226,0.217,0.216,0.124,0.080,west,2.6,No
2022/11/05,15:50,0.156,0.142,0.226,0.218,0.217,0.123,0.079,northwest,1.5,No
2022/11/05,16:00,0.158,0.141,0.227,0.218,0.217,0.125,0.078,west-northwest,3.3,No
2022/11/05,16:10,0.157,0.142,0.227,0.217,0.217,0.124,0.078,north-northwest,2.2,No
2022/11/05,16:20,0.157,0.142,0.225,0.218,0.218,0.125,0.079,northwest,3.0,No
2022/11/05,16:30,0.157,0.142,0.226,0.218,0.216,0.123,0.079,north-northwest,2.3,No
2022/11/05,16:40,0.157,0.141,0.226,0.217,0.218,0.124,0.079,north-northwest,1.5,No
2022/11/05,16:50,0.157,0.142,0.226,0.217,0.216,0.124,0.079,north,0.8,No
2022/11/05,17:00,0.156,0.143,0.227,0.219,0.217,0.124,0.079,-,CALM,No
2022/11/05,17:10,0.156,0.143,0.226,0.218,0.218,0.124,0.079,northwest,1.1,No
2022/11/05,17:20,0.156,0.142,0.227,0.218,0.217,0.124,0.079,west-northwest,3.8,No
2022/11/05,17:30,0.157,0.142,0.227,0.218,0.218,0.124,0.079,west-northwest,7.4,No
2022/11/05,17:40,0.157,0.142,0.226,0.217,0.217,0.124,0.079,west-northwest,8.6,No
2022/11/05,17:50,0.157,0.143,0.228,0.218,0.217,0.125,0.079,northwest,8.2,No
2022/11/05,18:00,0.156,0.142,0.226,0.218,0.216,0.123,0.079,west-northwest,6.9,No
2022/11/05,18:10,0.157,0.142,0.227,0.217,0.217,0.124,0.079,west-northwest,4.6,No
2022/11/05,18:20,0.157,0.141,0.225,0.217,0.217,0.123,0.079,northwest,3.5,No
2022/11/05,18:30,0.157,0.142,0.226,0.217,0.217,0.124,0.079,northwest,1.0,No
2022/11/05,18:40,0.157,0.142,0.226,0.217,0.215,0.123,0.079,west-northwest,2.3,No
2022/11/05,18:50,0.156,0.143,0.226,0.219,0.217,0.124,0.079,west-northwest,3.6,No
2022/11/05,19:00,0.158,0.142,0.227,0.217,0.215,0.124,0.080,west-northwest,4.7,No
2022/11/05,19:10,0.158,0.141,0.226,0.218,0.217,0.123,0.078,west-northwest,5.1,No
2022/11/05,19:20,0.157,0.143,0.227,0.218,0.218,0.124,0.079,northwest,6.4,No
2022/11/05,19:30,0.158,0.142,0.226,0.218,0.216,0.125,0.078,west-northwest,7.2,No
2022/11/05,19:40,0.158,0.142,0.226,0.217,0.216,0.125,0.079,west-northwest,8.3,No
2022/11/05,19:50,0.155,0.143,0.226,0.217,0.218,0.124,0.079,west-northwest,6.1,No
2022/11/05,20:00,0.157,0.142,0.227,0.218,0.217,0.124,0.079,west-northwest,5.9,No
2022/11/05,20:10,0.157,0.142,0.227,0.218,0.215,0.124,0.080,west-northwest,5.7,No
2022/11/05,20:20,0.157,0.143,0.226,0.217,0.217,0.124,0.080,northwest,4.6,No
2022/11/05,20:30,0.157,0.142,0.225,0.216,0.215,0.124,0.079,northwest,3.8,No
2022/11/05,20:40,0.157,0.141,0.227,0.217,0.216,0.124,0.079,west-northwest,4.3,No
2022/11/05,20:50,0.157,0.142,0.228,0.217,0.217,0.124,0.080,northwest,3.9,No
2022/11/05,21:00,0.157,0.143,0.225,0.217,0.216,0.124,0.080,west-northwest,3.6,No
2022/11/05,21:10,0.158,0.143,0.225,0.217,0.217,0.123,0.078,northwest,5.6,No
2022/11/05,21:20,0.157,0.142,0.227,0.217,0.217,0.123,0.079,northwest,6.2,No
2022/11/05,21:30,0.157,0.142,0.227,0.216,0.216,0.124,0.079,west-northwest,6.1,No
2022/11/05,21:40,0.157,0.142,0.228,0.216,0.217,0.124,0.079,west-northwest,5.9,No
2022/11/05,21:50,0.157,0.142,0.226,0.217,0.217,0.123,0.079,west,4.8,No
2022/11/05,22:00,0.157,0.142,0.226,0.216,0.216,0.124,0.079,west-northwest,4.2,No
2022/11/05,22:10,0.157,0.143,0.227,0.217,0.215,0.124,0.079,west-northwest,3.5,No
2022/11/05,22:20,0.158,0.142,0.227,0.218,0.216,0.123,0.079,west-northwest,4.0,No
2022/11/05,22:30,0.158,0.142,0.226,0.217,0.216,0.124,0.079,west-northwest,4.4,No
2022/11/05,22:40,0.158,0.141,0.226,0.217,0.216,0.124,0.079,west-northwest,5.0,No
2022/11/05,22:50,0.157,0.142,0.226,0.217,0.218,0.124,0.079,west-northwest,5.2,No
2022/11/05,23:00,0.156,0.142,0.226,0.218,0.216,0.125,0.079,west-northwest,5.2,No
2022/11/05,23:10,0.158,0.143,0.226,0.218,0.215,0.124,0.079,west-northwest,4.3,No
2022/11/05,23:20,0.157,0.142,0.227,0.217,0.217,0.124,0.080,west-northwest,4.9,No
2022/11/05,23:30,0.157,0.142,0.227,0.217,0.216,0.123,0.079,northwest,5.1,No
2022/11/05,23:40,0.158,0.142,0.226,0.217,0.215,0.124,0.079,northwest,5.2,No
2022/11/05,23:50,0.158,0.143,0.227,0.217,0.217,0.124,0.079,northwest,5.0,No
